Location: DARK SKY Beskydy - Park tmavé oblohy, www.darkskybeskydy.cz
(49.4926°N, 18.5016°E)
Time: 08:25:51
(UTC+02:00)

Envisat - Pass Details

Date: 24 June 2024
Orbit: 762 x 764 km, 98.3° (Epoch: 12 July)

Event Time Altitude Azimuth Distance (km) Brightness Sun altitude
Rises 03:23:00 0° 21° (NNE) 3,237 8.0 -9.4°
Reaches altitude 10° 03:25:31 10° 31° (NNE) 2,306 7.1 -9.2°
Maximum altitude 03:30:07 34° 95° (E) 1,247 4.5 -8.7°
Drops below altitude 10° 03:34:41 10° 160° (SSE) 2,290 5.2 -8.3°
Sets 03:37:11 0° 170° (S) 3,211 5.8 -8.0°
